Flag for Germany Weather past 2 weeks in Prenzlau, Brandenburg, Germany

Now
61 °F

Fog.


Feels Like: 61 °F
Forecast: 50 / 58 °F
Wind: No wind

Location: Szczecin Airport

Current Time: Sep 21, 2014 at 11:00:03 AM

Latest Report: Sep 21, 2014 at 10:30 AM


Visibility: 1 mi

Pressure: 29.83 "Hg

Humidity: 100%

Dew point: 61 °F

Location of PrenzlauLocation

Historic Weather in Prenzlau — Graph

°F

Prenzlau temperature yesterday

Maximum temperature yesterday: 75 °F (at 2:30 PM)
Minimum temperature yesterday: 48 °F (at 6:00 AM)
Average temperature yesterday: 60 °F

Past Weeks' High & Low Weather Summary

 TemperatureHumidityPressure
High79 °F (Sep 15, 4:30 PM)100% (Sep 7, 10:30 PM)30.18 "Hg (Sep 7, 10:30 PM)
Low48 °F (Sep 10, 10:30 PM)39% (Sep 6, 2:30 PM)29.80 "Hg (Sep 21, 8:00 AM)
Average62 °F79%30.03 "Hg
* Reported Sep 6 10:00 AM — Sep 21 10:00 AM, Prenzlau, Weather by CustomWeather, © 2014

Note: Actual official high and low records may vary slightly from our data, if they occured in-between our weather recording intervals... More about our weather records

Advertising

Prenzlau weather history for previous 24 hours

 ConditionsComfort  
Time TempWeatherWind HumidityBarometerVisibility
10:00 AM
Sep 21
61 °FFog.No wind94%29.83 "Hg1 mi
9:30 AM59 °FFog.No wind100%29.83 "Hg0 mi
9:00 AM59 °FFog.No wind100%29.80 "Hg0 mi
8:30 AM59 °FFog.5 mph94%29.80 "Hg0 mi
8:00 AM57 °FFog.3 mph100%29.80 "Hg0 mi
7:30 AM57 °FFog.No wind100%29.83 "Hg1 mi
7:00 AM59 °FCool.No wind94%29.83 "Hg1 mi
6:30 AM59 °FFog.No wind100%29.83 "Hg1 mi
6:00 AM59 °FFog.No wind100%29.83 "Hg1 mi
5:30 AM59 °FLight rain. Fog.No wind100%29.83 "Hg1 mi
5:00 AM59 °FLight rain. Fog.No wind100%29.83 "Hg1 mi
4:30 AM59 °FLight rain. Fog.No wind100%29.83 "Hg1 mi
4:00 AM59 °FLight rain. Fog.2 mph100%29.86 "Hg1 mi
3:30 AM59 °FLight rain. Fog.No wind94%29.83 "Hg1 mi
3:00 AM59 °FLight rain. Fog.No wind94%29.86 "Hg1 mi
2:30 AM59 °FLight rain. Fog.5 mph94%29.86 "Hg2 mi
2:00 AM59 °FLight rain. Partly cloudy.6 mph94%29.86 "Hg4 mi
1:30 AM61 °FPassing clouds.2 mph88%29.86 "Hg5 mi
1:00 AM61 °FPassing clouds.3 mph88%29.86 "Hg5 mi
12:30 AM61 °FPassing clouds.5 mph88%29.86 "Hg5 mi
12:00 AM59 °FPassing clouds.5 mph94%29.86 "Hg5 mi
11:30 PM
Sep 20
59 °FPassing clouds.5 mph94%29.86 "HgN/A
11:00 PM61 °FPassing clouds.6 mph88%29.86 "HgN/A
10:30 PM61 °FClear.6 mph88%29.86 "Hg10 mi
10:00 PM61 °FClear.6 mph88%29.89 "Hg10 mi
9:30 PM61 °FClear.5 mph88%29.89 "Hg10 mi
9:00 PM63 °FClear.3 mph83%29.89 "Hg10 mi
8:30 PM63 °FClear.6 mph83%29.89 "Hg10 mi
8:00 PM64 °FSunny.5 mph78%29.89 "Hg10 mi
3:30 PM75 °FScattered clouds.No wind44%29.89 "HgN/A
3:00 PM75 °FScattered clouds.2 mph47%29.92 "HgN/A
2:30 PM75 °FScattered clouds.6 mph47%29.92 "HgN/A
2:00 PM73 °FSunny.2 mph53%29.92 "Hg10 mi
1:30 PM73 °FSunny.3 mph53%29.92 "Hg10 mi
1:00 PM73 °FSunny.5 mph53%29.92 "Hg10 mi
12:30 PM73 °FSunny.3 mph53%29.92 "Hg10 mi
12:00 PM72 °FSunny.3 mph57%29.92 "Hg10 mi
11:30 AM70 °FSunny.5 mph60%29.95 "Hg10 mi
11:00 AM70 °FSunny.5 mph60%29.95 "Hg10 mi
Weather by CustomWeather, © 2014

See weather overviewHow to use our weather pages